www.pogodaiklimat.ru

Погода и климат >> Архив погоды >> Индия >> Naliya


ПОГОДА в Naliya

  • Прогноз погоды в Naliya
  • Монитор погоды в Naliya
  • Климат города

АРХИВ ПОГОДЫ в Naliya

Время (UTC), дата Ветер
(напр.,м/с)
 
Видим.   Явления Облачность Т
(С)
Тd
(С)
f
(%)
Тe
(С)
Тes
(С)
Комфортность P
(гПа)
Po
(гПа)
Тmin
(С)
Tmax
(С)
R
(мм)
R24
(мм)
S
(см)
00 10.08 штиль 0 4000 м 5/5 600 м
[Sc]
+27.2 +22.8 77 +36 +36 очень
душно
1001.6 1002.0
03 10.08 ЮЗ 2 4000 м 5/4 600 м
[Sc As op]
+28.2 +23.9 78 +39 +42 очень
душно
1002.8 1003.0 +26.8
06 10.08 ЮЗ 3 4000 м 8/5 600 м
[Sc As op]
+29.4 +23.9 72 +40 +45 очень
душно
1003.6 1004.0
09 10.08 ЮЗ 3 4000 м 8/5 600 м
[Sc As op]
+31.4 +23.3 62 +42 +46 опасность
перегрева
1002.3 1002.0
12 10.08 ЮЗ 3 4000 м слабая морось 6/5 600 м
[Sc As op]
+29.0 +23.8 74 +40 +42 очень
душно
1001.5 1002.0 +32.2 0.6
15 10.08 ЮЗ 3 4000 м 6/4 600 м
[Sc As op]
+28.2 +23.2 74 +38 +38 очень
душно
1002.7 1003.0 0.6
18 10.08 ЮЗ 2 4000 м 6/5 600 м
[Sc As op]
+28.0 +23.3 76 +38 +38 очень
душно
1003.8 1004.0 0.6
21 10.08 ЮЗ 1 4000 м слабая морось 6/5 600 м
[Sc As op]
+27.8 +23.1 76 +37 +37 очень
душно
1002.3 1002.0 1
00 11.08 ЮЗ 1 4000 м слабая морось 6/5 600 м
[Sc As op]
+27.6 +23.2 77 +37 +37 очень
душно
1002.0 1002.0 3
03 11.08 ЮЗ 2 4000 м 8/5 600 м
[Sc As op]
+27.4 +23.9 81 +38 +39 очень
душно
1003.1 1003.0 +26.8 3
06 11.08 ЮЗ 3 4000 м слабая морось 8/5 600 м
[Sc As op]
+26.2 +23.3 84 +35 +39 очень
душно
1004.3 1004.0 0.8
09 11.08 ЮЗ 3 4000 м 8/5 600 м
[Sc Ac trans]
+29.8 +23.4 69 +40 +46 очень
душно
1003.0 1003.0 0.8
12 11.08 ЮЗ 3 4000 м 8/5 600 м
[Sc As op]
+29.2 +23.1 70 +39 +40 очень
душно
1002.4 1002.0 +31.0 0.8
15 11.08 ЮЗ 2 4000 м слабая морось 8/5 600 м
[Sc As op]
+27.0 +23.5 81 +37 +37 очень
душно
1003.2 1003.0 1
18 11.08 ЮЗ 2 4000 м 8/5 600 м
[Sc Ac trans]
+27.6 +23.5 78 +37 +37 очень
душно
1004.0 1004.0 1
21 11.08 ЮЗ 2 4000 м 8/5 600 м
[Sc As op]
+27.4 +23.3 78 +37 +37 очень
душно
1002.6 1003.0 1
00 12.08 ЮЗ 2 4000 м 8/5 600 м
[Sc As op]
+27.0 +23.2 80 +36 +36 очень
душно
1002.2 1002.0 1
03 12.08 ЮЗ 2 4000 м 8/5 600 м
[Sc As op]
+27.4 +23.9 81 +38 +39 очень
душно
1003.1 1003.0 +26.4 2
06 12.08 ЮЗ 3 4000 м 8/6 600 м
[Sc As op]
+28.4 +23.5 75 +39 +43 очень
душно
1004.2 1004.0
09 12.08 ЮЗ 4 4000 м 8/5 600 м
[Sc As op]
+29.6 +23.2 69 +40 +43 очень
душно
1003.0 1003.0
12 12.08 ЮЗ 2 4000 м 8/5 600 м
[Sc As op]
+28.0 +23.0 74 +37 +38 очень
душно
1002.3 1002.0 +30.8
15 12.08 ЮЗ 3 4000 м 8/6 600 м
[Sc As op]
+28.0 +23.0 74 +37 +37 очень
душно
1002.5 1003.0
18 12.08 ЮЗ 3 4000 м 8/6 600 м
[Sc As op]
+27.8 +24.4 82 +39 +39 очень
душно
1003.6 1004.0
21 12.08 ЮЗ 3 4000 м 8/6 600 м
[Sc As op]
+27.6 +22.6 74 +36 +36 очень
душно
1002.1 1002.0
00 13.08 ЮЗ 3 4000 м 8/6 600 м
[Sc As op]
+31.2 +22.8 61 +41 +41 опасность
перегрева
1001.8 1002.0
03 13.08 ЮЗ 4 4000 м 5/4 600 м
[Sc Ac trans]
+28.4 +23.8 76 +39 +41 очень
душно
1003.2 1003.0 +26.8
06 13.08 ЮЗ 3 4000 м 5/4 600 м
[Sc Ac trans]
+29.6 +23.5 70 +40 +49 очень
душно
1004.5 1005.0
09 13.08 ЮЗ 3 4000 м 5/4 600 м
[Sc As op]
+30.0 +23.7 69 +41 +49 опасность
перегрева
1004.4 1004.0
12 13.08 ЮЗ 3 4000 м 5/4 600 м
[Sc As op]
+30.0 +23.3 67 +40 +42 очень
душно
1003.4 1003.0 +31.0
15 13.08 ЮЗ 3 4000 м 6/5 600 м
[Sc As op]
+28.0 +23.3 76 +38 +38 очень
душно
1004.4 1004.0
18 13.08 ЮЗ 3 4000 м 6/5 600 м
[Sc As op]
+28.0 +23.3 76 +38 +38 очень
душно
1005.1 1005.0
21 13.08 ЮЗ 3 4000 м 8/5 600 м
[Sc As op]
+27.8 +23.1 76 +37 +37 очень
душно
1004.7 1005.0
00 14.08 ЮЗ 3 4000 м 8/5 600 м
[Sc As op]
+27.6 +23.2 77 +37 +37 очень
душно
1004.7 1005.0
03 14.08 ЮЗ 2 4000 м 5/4 600 м
[Sc As op]
+28.6 +23.4 73 +39 +41 очень
душно
1006.2 1006.0 +27.0
06 14.08 З 3 10 км 8/8 600 м
[Sc diur, vesp]
+30.4 +25.6 76 +45 +48 опасность
перегрева
1007.3 1007.0
09 14.08 З 3 10 км 6/6 600 м
[Sc diur, vesp]
+31.2 +24.7 68 +44 +51 опасность
перегрева
1006.5 1007.0
12 14.08 З 3 4000 м 6/6 600 м
[Sc diur, vesp]
+30.0 +24.9 74 +43 +44 опасность
перегрева
1005.9 1006.0 +32.0
15 14.08 ЮЗ 2 4000 м 5/5 600 м
[Sc]
+28.4 +25.0 82 +41 +41 опасность
перегрева
1006.5 1007.0
18 14.08 ЮЗ 2 4000 м 6/6 600 м
[Sc]
+28.2 +25.1 83 +41 +41 опасность
перегрева
1007.6 1008.0
21 14.08 ЮЗ 2 4000 м 5/5 600 м
[Sc]
+28.0 +25.2 85 +41 +41 опасность
перегрева
1006.6 1007.0
00 15.08 ЮЗ 2 4000 м 5/5 600 м
[Sc]
+27.6 +24.7 84 +39 +39 очень
душно
1006.6 1007.0
03 15.08 штиль 0 10 км 9/5 600 м
[Sc Ac trans]
+28.4 +25.3 83 +41 +43 опасность
перегрева
1008.0 1008.0 +26.6
06 15.08 З 3 4000 м 8/5 600 м
[Sc Ac trans]
+30.4 +24.1 69 +42 +48 опасность
перегрева
1008.5 1009.0
09 15.08 З 3 10 км 5/5 600 м
[Sc]
+31.2 +22.1 58 +40 +48 очень
душно
1007.0 1007.0
12 15.08 З 3 10 км 5/5 600 м
[Sc]
+30.4 +22.8 64 +40 +42 очень
душно
1005.6 1006.0 +32.2
15 15.08 штиль 0 4000 м ясно +28.2 +22.6 72 +37 +37 очень
душно
1006.0 1006.0
18 15.08 З 2 4000 м 3/3 600 м
[Sc]
+27.8 +22.8 74 +37 +37 очень
душно
1007.3 1007.0
21 15.08 З 3 4000 м 5/5 600 м
[Sc]
+28.0 +23.3 76 +38 +38 очень
душно
1005.7 1006.0
00 16.08 З 3 4000 м 8/5 600 м
[Sc Ac trans]
+27.6 +23.2 77 +37 +37 очень
душно
1005.5 1006.0
03 16.08 З 3 4000 м 6/4 600 м
[Sc Ac trans]
+28.0 +24.3 80 +39 +41 очень
душно
1006.7 1007.0 +27.0
06 16.08 З 3 10 км 5/3 600 м
[Sc Ac trans]
+30.6 +23.7 67 +42 +51 опасность
перегрева
1007.5 1008.0
09 16.08 З 4 10 км 5/5 600 м
[Sc]
+31.4 +23.3 62 +42 +48 опасность
перегрева
1005.6 1006.0
12 16.08 З 4 10 км 5/5 600 м
[Sc Ac trans]
+30.2 +23.9 69 +42 +43 опасность
перегрева
1004.4 1004.0 +31.6
15 16.08 З 2 4000 м 3/3 600 м
[Sc]
+28.4 +22.8 72 +38 +38 очень
душно
1004.5 1005.0
18 16.08 З 3 4000 м ясно +28.0 +23.7 77 +38 +38 очень
душно
1005.0 1005.0
21 16.08 З 2 4000 м ясно +27.4 +23.3 78 +37 +37 очень
душно
1003.7 1004.0

 

Местоположение метеостанции Naliya (Gujarat, Индия): широта 23.25 долгота 68.85 высота над уровнем моря 21 м.

В архиве по умолчанию представлена погода в Naliya за последнюю неделю. Архивные данные за месяц целиком и за предыдущие месяцы, начиная с января 2011 года, Вы можете получить, выбрав интересующий диапазон дат из раскрывающегося списка и нажав кнопку "Ввод!".

Внимание! Время в таблицах - всемирное. Для получения местного времени необходимо прибавить поправку, которая в Naliya равна 5.5 ч.

Смотрите также архив погоды в соседних городах и на ближайших метеорологических станциях:

Погода в Mandvi (Gujarat, Индия) (64 км)
Погода в Bhuj-Rudramata (Gujarat, Индия) (84 км)
Погода в Okha (Gujarat, Индия) (90 км)
Погода в Dwarka (Gujarat, Индия) (101 км)
Погода в Kandla (Gujarat, Индия) (129 км)
Погода в New Kandla (Gujarat, Индия) (143 км)
Погода в Badin (Пакистан) (154 км)
Погода в Porbandar (Gujarat, Индия) (197 км)
Погода в Rajkot (Gujarat, Индия) (224 км)
Погода в Hyderabad Airport (Пакистан) (241 км)

Пояснения к столбцам:

Ветер - указаны скорость ветра в м/с - средняя за 10 мин, порывы в срок и между сроками (в фигурных скобках) и направление, откуда дует ветер: С - северный, СВ - северо-восточный, В - восточный, ЮВ - юго-восточный, Ю - южный, ЮЗ - юго-западный, З - западный, СЗ - северо-западный.
Видимость - горизонтальная дальность видимости в метрах или километрах. При видимости от 1 до 10 км при отсутствии осадков обычно наблюдается дымка, при ухудшении видимости до 1 км и менее - туман. В сухую погоду видимость может ухудшаться дымом, пылью или мглою.
Явления - указаны атмосферные явления, наблюдавшиеся в срок или в последний час перед сроком; фигурными скобками обозначены явления, наблюдавшиеся между сроками (за 1-3 часа до срока); квадратными скобками обозначены град или гололедные отложения с указанием их диаметра в мм.
Облачность - указаны через наклонную черту общая и нижняя облачность в баллах и высота нижней границы облаков в метрах; квадратными скобками обозначены формы облаков: Ci - перистые, Cs - перисто-слоистые, Cc - перисто-кучевые, Ac - высококучевые, As - высокослоистые, Sc - слоисто-кучевые, Ns - слоисто-дождевые, Cu - кучевые, Cb - кучево-дождевые. Подробнее классификацию облаков см. в Атласе облаков (PDF).
T - Температура воздуха - температура, измеренная на высоте 2 м над землей.
Td - Температура точки росы - температура, при понижении до которой содержащийся в воздухе водяной пар достигнет насыщения.
f - Относительная влажность воздуха - влажноcть воздуха, измеренная на высоте 2 м над землей.
Te - Эффективная температура - температура, которую ощущает одетый по сезону человек в тени. Характеристика душности погоды. При расчете учитывается влияние влажности воздуха и скорости ветра на теплоощущения человека.
Tes - Эффективная температура на солнце - температура, которую ощущает человек, с поправкой на солнечный нагрев. Характеристика знойности погоды. Зависит от высоты солнца над горизонтом, облачности и скорости ветра. Ночью, в пасмурную погоду, а также при ветре 12 м/с и более поправка равна нулю.
P - Атмосферное давление - приведенное к уровню моря атмосферное давление.
Po - Атмосферное давление - измеренное на уровне метеостанции атмосферное давление.
Tmin - Минимальная температура - минимум температуры воздуха на высоте 2 м над землей.
Tmax - Максимальная температура - максимум температуры воздуха на высоте 2 м над землей.
R - Количество осадков - Количество выпавших осадков за период времени, мм. При наведении курсора мыши на число - период времени, за который выпало указанное количество осадков.
R24 - Количество осадков - Количество выпавших осадков за 24 часа, мм.
S - Снежный покров - Высота снежного покрова, см. При наведении курсора мыши на число - состояние снежного покрова и степень покрытия местности в баллах.